Regional Weather Roundup
Issued by NWS

Home | Current Version | Previous Version | Text Only | Print | Product List | Glossary On
Versions: 1 2 3 4 5 6 7 8 9 10 11 12 13 14 15 16 17 18 19 20 21 22 23 24 25 26 27 28 29 30 31 32 33 34 35 36 37 38 39 40 41 42 43 44 45 46 47 48 49 50
000
ASUS43 KFSD 231710
RWRSD

WEATHER ROUNDUP FOR SOUTH DAKOTA
NATIONAL WEATHER SERVICE SIOUX FALLS SD
1200 PM CDT TUE SEP 23 2014

NOTE: "FAIR" INDICATES FEW OR NO CLOUDS BELOW 12,000 FEET WITH NO
SIGNIFICANT WEATHER AND/OR OBSTRUCTIONS TO VISIBILITY.


SDZ001>005-009-010-012>017-231800-
NORTHWEST AND NORTH CENTRAL SOUTH DAKOTA

CITY           SKY/WX    TMP DP  RH WIND       PRES   REMARKS
BUFFALO          N/A     77  53  43 W13G20    29.84F
FAITH            N/A     68  57  68 SE7       29.92S
MOBRIDGE       CLOUDY    65  56  72 SE14      29.92F
$$

SDZ012>016-024>037-041>051-057-063-072>074-231800-
SOUTHWEST AND SOUTH CENTRAL SOUTH DAKOTA

CITY           SKY/WX    TMP DP  RH WIND       PRES   REMARKS
RAPID CTY ARPT CLOUDY    68  57  68 CALM      29.95R
PIERRE         CLOUDY    64  56  75 SE20      29.92S
CUSTER         PTSUNNY   70  47  43 NW10      30.05S
ELLSWORTH AFB  PTSUNNY   68  59  73 SW2       29.94R
PHILIP         MOSUNNY   67  55  65 N3        29.91R
PINE RIDGE     PTSUNNY   69  55  60 W9        29.96S
WINNER         CLOUDY    66  56  70 S20G28    29.94F
$$

SDZ004>011-016>023-039-040-231800-
NORTHEAST SOUTH DAKOTA

CITY           SKY/WX    TMP DP  RH WIND       PRES   REMARKS
ABERDEEN       CLOUDY    61  57  87 SE17G30   30.03S
WATERTOWN      CLOUDY    60  50  69 S21G26    30.10S
SISSETON         N/A     66  53  63 S14G23    30.07S
$$

SDZ017-020-022-023-036>040-048>070-231800-
SOUTHEAST SOUTH DAKOTA

CITY           SKY/WX    TMP DP  RH WIND       PRES   REMARKS
SIOUX FALLS    LGT RAIN  58  56  93 S10       30.13F
HURON          LGT RAIN  56  54  93 SE17G33   30.04S FOG
CHAMBERLAIN    CLOUDY    60  55  83 S16       29.98S
MITCHELL       LGT RAIN  57  56  96 SE15G24   30.06S
YANKTON        CLOUDY    57  55  94 SE12      30.10F
$$

ABBREVIATIONS USED IN REMARKS
   TC - TEMPERATURE IN CELSIUS
  WCI - WIND CHILL INDEX
   HX - HEAT INDEX
  VSB - VISIBILITY




USA.gov is the U.S. government's official web portal to all federal, state and local government web resources and services.